ISIS 1

Last updated on Sun Apr 12 2026 00:02:16 GMT+0000 (Coordinated Universal Time)

1 03669U 69009A 26101.11031285 .00000088 00000+0 53150-4 0 9992 2 03669 88.4479 151.7668 1707565 23.7554 343.3636 11.30422446352192
UTC large
Height (km)
Speed (km/s)
/
Latitude / Longitude
Inclination (degrees)
Orbital Period (minutes)
Azimuth
Elevation
Range (km)
Doppler Factor

Next 0 passes for location: London (51.5072 / 0.1276)

Sorry there are no passes over London.
ISIS 1